{"data":{"norad_id":57958,"epoch":"2026-05-25T03:32:10.798080Z","epoch_age_seconds":65592,"freshness":"FRESH","line1":"1 57958U 23149A   26145.14734720  .00000367  00000+0  88536-4 0  9998","line2":"2 57958  98.1956  94.8470 0002140  81.5785 278.5657 14.58707368141642","mean_motion":14.58707368,"eccentricity":0.000214,"inclination_deg":98.1956,"raan_deg":94.847,"arg_perigee_deg":81.5785,"mean_anomaly_deg":278.5657,"bstar":8.8536e-5,"rev_number":14164,"period_min":98.71753797846,"perigee_km":695.83670735068,"apogee_km":698.86501615551,"semimajor_km":7075.4878617531,"source":"CELESTRAK","updated_at":"2026-05-25T13:38:00.385783Z"}}